• în Republica Moldova
  • Lista ţărilor
  • Pe 7 zile
  • Temperatura apei
  • Hartă satelitară
  • Meteo pe hartă
  • Widget-uri
  • user-avatar
    Intrare

    Meteo pe oră la Saurimo

    Astăzi, 23 Aprilie, Duminică

    Timp Temperatura Precipitaţii Vânt Presiune Umiditate
    00:00 +21°C° 0,1 mm 1 m/s 669 mmHg 93%
    01:00 +20°C° 0 mm 0 m/s 669 mmHg 94%
    02:00 +21°C° 1,2 mm 1 m/s 669 mmHg 95%
    03:00 +21°C° 1,2 mm 1 m/s 669 mmHg 95%
    04:00 +21°C° 1,2 mm 1 m/s 669 mmHg 95%
    05:00 +22°C° 0,8 mm 1 m/s 670 mmHg 94%
    06:00 +22°C° 0,8 mm 1 m/s 671 mmHg 92%
    07:00 +23°C° 0 mm 1 m/s 671 mmHg 90%
    08:00 +24°C° 0,1 mm 1 m/s 671 mmHg 84%
    09:00 +26°C° 0,1 mm 1 m/s 672 mmHg 78%
    10:00 +27°C° 0,1 mm 1 m/s 672 mmHg 72%
    11:00 +27°C° 1,3 mm 1 m/s 672 mmHg 73%
    12:00 +27°C° 1,3 mm 1 m/s 671 mmHg 73%
    13:00 +27°C° 1,3 mm 2 m/s 671 mmHg 74%
    14:00 +27°C° 1 mm 2 m/s 670 mmHg 77%
    15:00 +26°C° 1 mm 2 m/s 670 mmHg 81%
    16:00 +26°C° 1 mm 2 m/s 670 mmHg 84%
    17:00 +25°C° 0,1 mm 2 m/s 670 mmHg 88%
    18:00 +24°C° 0,1 mm 2 m/s 670 mmHg 92%
    19:00 +23°C° 0,1 mm 1 m/s 670 mmHg 96%
    20:00 +22°C° 0 mm 1 m/s 670 mmHg 97%
    21:00 +22°C° 0 mm 1 m/s 670 mmHg 97%
    22:00 +22°C° 0 mm 1 m/s 671 mmHg 98%
    23:00 +22°C° 0,1 mm 1 m/s 671 mmHg 98%

    Mâine, 24 Aprilie, Luni

    Timp Temperatura Precipitaţii Vânt Presiune Umiditate
    00:00 +21°C° 0,1 mm 1 m/s 670 mmHg 98%
    01:00 +21°C° 0,1 mm 1 m/s 670 mmHg 99%
    02:00 +21°C° 0,8 mm 1 m/s 670 mmHg 98%
    03:00 +21°C° 0,8 mm 1 m/s 670 mmHg 98%
    04:00 +21°C° 0,8 mm 1 m/s 670 mmHg 98%
    05:00 +21°C° 0,2 mm 1 m/s 670 mmHg 97%
    06:00 +22°C° 0,2 mm 1 m/s 671 mmHg 96%
    07:00 +22°C° 0,2 mm 1 m/s 671 mmHg 95%
    08:00 +23°C° 0,1 mm 1 m/s 671 mmHg 90%
    09:00 +24°C° 0,1 mm 1 m/s 672 mmHg 85%
    10:00 +25°C° 0,1 mm 1 m/s 672 mmHg 80%
    11:00 +26°C° 0,1 mm 1 m/s 672 mmHg 75%
    12:00 +27°C° 0,1 mm 1 m/s 671 mmHg 70%
    13:00 +28°C° 0,1 mm 1 m/s 671 mmHg 64%
    14:00 +27°C° 0,5 mm 1 m/s 671 mmHg 69%
    15:00 +27°C° 0,5 mm 1 m/s 670 mmHg 73%
    16:00 +26°C° 0,5 mm 1 m/s 670 mmHg 78%
    17:00 +25°C° 0,3 mm 1 m/s 670 mmHg 82%
    18:00 +24°C° 0,3 mm 1 m/s 670 mmHg 87%
    19:00 +22°C° 0,3 mm 1 m/s 670 mmHg 91%
    20:00 +22°C° 0 mm 1 m/s 670 mmHg 92%
    21:00 +21°C° 0 mm 1 m/s 670 mmHg 93%
    22:00 +19°C° 0 mm 0 m/s 671 mmHg 94%
    23:00 +21°C° 0 mm 1 m/s 671 mmHg 94%

    Poimâine, 25 Aprilie, Marţi

    Timp Temperatura Precipitaţii Vânt Presiune Umiditate
    00:00 +21°C° 0 mm 1 m/s 670 mmHg 93%
    01:00 +21°C° 0 mm 1 m/s 670 mmHg 93%
    02:00 +21°C° 0,1 mm 1 m/s 670 mmHg 94%
    03:00 +21°C° 0,1 mm 1 m/s 670 mmHg 95%
    04:00 +21°C° 0,1 mm 1 m/s 669 mmHg 96%
    05:00 +21°C° 0 mm 1 m/s 670 mmHg 94%
    06:00 +22°C° 0 mm 1 m/s 671 mmHg 93%
    07:00 +22°C° 0 mm 1 m/s 671 mmHg 91%
    08:00 +24°C° 0,1 mm 1 m/s 672 mmHg 82%
    09:00 +26°C° 0,1 mm 2 m/s 672 mmHg 74%
    10:00 +28°C° 0,1 mm 2 m/s 673 mmHg 65%
    11:00 +28°C° 0,1 mm 2 m/s 672 mmHg 63%
    12:00 +29°C° 0,1 mm 2 m/s 671 mmHg 60%
    13:00 +29°C° 0,1 mm 2 m/s 670 mmHg 57%
    14:00 +29°C° 0,5 mm 2 m/s 670 mmHg 63%
    15:00 +28°C° 0,5 mm 1 m/s 670 mmHg 68%
    16:00 +28°C° 0,5 mm 1 m/s 669 mmHg 73%
    17:00 +26°C° 0,4 mm 1 m/s 669 mmHg 77%
    18:00 +25°C° 0,4 mm 1 m/s 669 mmHg 81%
    19:00 +23°C° 0,4 mm 1 m/s 669 mmHg 85%
    20:00 +23°C° 0 mm 1 m/s 670 mmHg 85%
    21:00 +23°C° 0 mm 1 m/s 670 mmHg 86%
    22:00 +22°C° 0 mm 1 m/s 671 mmHg 87%
    23:00 +22°C° 0,1 mm 1 m/s 670 mmHg 88%

    26 Aprilie, Miercuri

    Timp Temperatura Precipitaţii Vânt Presiune Umiditate
    00:00 +22°C° 0,1 mm 1 m/s 670 mmHg 89%
    01:00 +21°C° 0,1 mm 1 m/s 670 mmHg 90%
    02:00 +21°C° 0,2 mm 1 m/s 670 mmHg 91%
    03:00 +21°C° 0,2 mm 1 m/s 669 mmHg 93%
    04:00 +20°C° 0,2 mm 1 m/s 669 mmHg 94%
    05:00 +21°C° 1,2 mm 1 m/s 670 mmHg 94%
    06:00 +20°C° 1,2 mm 2 m/s 671 mmHg 93%
    07:00 +20°C° 1,2 mm 2 m/s 671 mmHg 93%
    08:00 +23°C° 0,2 mm 2 m/s 672 mmHg 87%
    09:00 +24°C° 0,2 mm 2 m/s 672 mmHg 81%
    10:00 +26°C° 0,2 mm 3 m/s 673 mmHg 74%
    11:00 +26°C° 0,2 mm 3 m/s 672 mmHg 71%
    12:00 +27°C° 0,2 mm 3 m/s 671 mmHg 67%
    13:00 +28°C° 0,2 mm 2 m/s 670 mmHg 64%
    14:00 +28°C° 0,1 mm 2 m/s 670 mmHg 67%
    15:00 +27°C° 0,1 mm 2 m/s 670 mmHg 71%
    16:00 +27°C° 0,1 mm 1 m/s 669 mmHg 74%
    17:00 +26°C° 0 mm 1 m/s 669 mmHg 78%
    18:00 +24°C° 0 mm 1 m/s 670 mmHg 82%
    19:00 +23°C° 0 mm 1 m/s 670 mmHg 86%
    20:00 +23°C° 0,1 mm 1 m/s 670 mmHg 87%
    21:00 +21°C° 0,1 mm 2 m/s 671 mmHg 89%
    22:00 +21°C° 0,1 mm 2 m/s 671 mmHg 90%
    23:00 +22°C° 1,5 mm 1 m/s 671 mmHg 92%

    27 Aprilie, Joi

    Timp Temperatura Precipitaţii Vânt Presiune Umiditate
    00:00 +21°C° 1,5 mm 1 m/s 670 mmHg 95%
    01:00 +21°C° 1,5 mm 1 m/s 670 mmHg 97%
    02:00 +21°C° 2,2 mm 1 m/s 670 mmHg 97%
    03:00 +21°C° 2,2 mm 1 m/s 670 mmHg 97%
    04:00 +21°C° 2,2 mm 1 m/s 670 mmHg 97%
    05:00 +20°C° 1 mm 2 m/s 671 mmHg 96%
    06:00 +20°C° 1 mm 2 m/s 671 mmHg 96%
    07:00 +20°C° 1 mm 2 m/s 672 mmHg 95%
    08:00 +21°C° 0,1 mm 3 m/s 672 mmHg 91%
    09:00 +22°C° 0,1 mm 3 m/s 673 mmHg 86%
    10:00 +24°C° 0,1 mm 3 m/s 673 mmHg 82%
    11:00 +25°C° 0,2 mm 2 m/s 672 mmHg 79%
    12:00 +26°C° 0,2 mm 2 m/s 672 mmHg 75%
    13:00 +27°C° 0,2 mm 2 m/s 671 mmHg 72%
    14:00 +26°C° 0,1 mm 2 m/s 671 mmHg 74%
    15:00 +26°C° 0,1 mm 1 m/s 670 mmHg 76%
    16:00 +26°C° 0,1 mm 1 m/s 670 mmHg 79%
    17:00 +25°C° 0 mm 1 m/s 671 mmHg 81%
    18:00 +24°C° 0 mm 1 m/s 671 mmHg 84%
    19:00 +23°C° 0 mm 1 m/s 671 mmHg 87%
    20:00 +23°C° 0 mm 1 m/s 671 mmHg 89%
    21:00 +22°C° 0 mm 1 m/s 671 mmHg 91%
    22:00 +22°C° 0 mm 1 m/s 671 mmHg 92%
    23:00 +21°C° 0 mm 1 m/s 671 mmHg 94%

    28 Aprilie, Vineri

    Timp Temperatura Precipitaţii Vânt Presiune Umiditate
    00:00 +21°C° 0 mm 1 m/s 671 mmHg 96%
    01:00 +21°C° 0 mm 1 m/s 670 mmHg 97%
    02:00 +20°C° 0,1 mm 1 m/s 670 mmHg 97%
    03:00 +20°C° 0,1 mm 1 m/s 670 mmHg 97%
    04:00 +20°C° 0,1 mm 1 m/s 671 mmHg 97%
    05:00 +20°C° 0 mm 2 m/s 671 mmHg 95%
    06:00 +20°C° 0 mm 2 m/s 672 mmHg 93%
    07:00 +20°C° 0 mm 2 m/s 672 mmHg 90%
    08:00 +23°C° 0 mm 2 m/s 673 mmHg 83%
    09:00 +25°C° 0 mm 3 m/s 673 mmHg 75%
    10:00 +27°C° 0 mm 3 m/s 674 mmHg 68%
    11:00 +28°C° 0,2 mm 3 m/s 673 mmHg 64%
    12:00 +29°C° 0,2 mm 3 m/s 672 mmHg 61%
    13:00 +29°C° 0,2 mm 2 m/s 672 mmHg 57%
    14:00 +29°C° 0,2 mm 2 m/s 671 mmHg 61%
    15:00 +29°C° 0,2 mm 2 m/s 671 mmHg 64%
    16:00 +28°C° 0,2 mm 1 m/s 671 mmHg 68%
    17:00 +26°C° 0,1 mm 1 m/s 671 mmHg 73%
    18:00 +25°C° 0,1 mm 1 m/s 671 mmHg 78%
    19:00 +23°C° 0,1 mm 1 m/s 671 mmHg 83%
    20:00 +23°C° 0 mm 1 m/s 671 mmHg 85%
    21:00 +22°C° 0 mm 1 m/s 671 mmHg 86%
    22:00 +22°C° 0 mm 1 m/s 672 mmHg 87%
    23:00 +21°C° 0,3 mm 1 m/s 671 mmHg 89%
    Arată mai mult